FW1426 Weather Reports


Display with metric or nautical units.
time (UTC)temp
F
wind
direction
speed
MPH
gust
MPH
rain 1hr
in
rain 24hr
in
rain mn
in
humidity
%
barometer
mb
20201021131615 55 94 2.0 4.0 0.00 0.00 0.00 39 1010.2
20201021130046 54 95 1.0 2.0 0.00 0.00 0.00 40 1010.3
20201021124536 56 95 1.0 3.0 0.00 0.00 0.00 37 1010.1
20201021123033 56 89 3.0 4.0 0.00 0.00 0.00 36 1009.8
20201021121550 58 146 1.0 4.0 0.00 0.00 0.00 32 1009.8
20201021120032 59 147 2.0 4.0 0.00 0.00 0.00 31 1009.8
20201021114534 59 122 2.0 4.0 0.00 0.00 0.00 31 1009.6
20201021113030 60 107 2.0 8.0 0.00 0.00 0.00 31 1009.4
20201021111521 59 102 3.0 7.0 0.00 0.00 0.00 32 1009.6
20201021110029 58 108 2.0 4.0 0.00 0.00 0.00 34 1009.6
20201021104518 57 94 1.0 3.0 0.00 0.00 0.00 35 1009.5
20201021101521 58 83 1.0 3.0 0.00 0.00 0.00 33 1009.6
20201021100023 58 81 3.0 7.0 0.00 0.00 0.00 33 1009.7
20201021094526 58 91 2.0 4.0 0.00 0.00 0.00 35 1009.6
20201021093025 57 105 2.0 3.0 0.00 0.00 0.00 37 1009.6
20201021091515 58 105 2.0 4.0 0.00 0.00 0.00 35 1009.6
20201021090357 58 105 1.0 2.0 0.00 0.00 0.00 35 1009.6
20201021084629 59 105 2.0 4.0 0.00 0.00 0.00 34 1009.5
20201021083332 59 109 3.0 4.0 0.00 0.00 0.00 35 1009.5
20201021081706 59 113 2.0 4.0 0.00 0.00 0.00 38 1009.5
20201021080158 60 113 0.0 2.0 0.00 0.00 0.00 35 1009.4
20201021074741 60 113 2.0 3.0 0.00 0.00 0.00 32 1009.3
20201021073148 60 113 1.0 2.0 0.00 0.00 0.00 32 1009.3
20201021071625 61 113 1.0 2.0 0.00 0.00 0.00 31 1009.2
20201021070152 62 113 0.0 2.0 0.00 0.00 0.00 30 1009.0
20201021064616 64 113 2.0 3.0 0.00 0.00 0.00 28 1009.0
20201021063115 66 113 1.0 4.0 0.00 0.00 0.00 25 1009.0
20201021061707 66 113 3.0 6.0 0.00 0.00 0.00 24 1009.0
20201021060104 66 106 2.0 6.0 0.00 0.00 0.00 26 1009.0
20201021054625 66 98 2.0 4.0 0.00 0.00 0.00 28 1008.8
20201021053156 66 96 2.0 4.0 0.00 0.00 0.00 29 1008.9
20201021051628 66 82 3.0 5.0 0.00 0.00 0.00 30 1008.6
20201021050204 66 111 2.0 3.0 0.00 0.00 0.00 31 1008.6
20201021044646 67 111 2.0 4.0 0.00 0.00 0.00 29 1008.5
20201021043103 68 118 2.0 3.0 0.00 0.00 0.00 27 1008.4
20201021041805 69 119 1.0 2.0 0.00 0.00 0.00 27 1008.4
20201021040130 70 119 2.0 4.0 0.00 0.00 0.00 24 1008.2
20201021034618 70 90 1.0 4.0 0.00 0.00 0.00 26 1008.0
20201021033203 71 342 2.0 3.0 0.00 0.00 0.00 26 1007.8
20201021031637 72 290 1.0 2.0 0.00 0.00 0.00 25 1007.7
20201021030128 73 290 0.0 3.0 0.00 0.00 0.00 23 1007.6
20201021024608 74 290 2.0 3.0 0.00 0.00 0.00 22 1007.6
20201021023104 75 290 2.0 5.0 0.00 0.00 0.00 21 1007.6
20201021021539 75 282 2.0 4.0 0.00 0.00 0.00 21 1007.5
20201021020055 76 300 1.0 4.0 0.00 0.00 0.00 20 1007.5
20201021014559 77 304 2.0 4.0 0.00 0.00 0.00 19 1007.3
20201021013050 79 304 2.0 4.0 0.00 0.00 0.00 18 1007.2
20201021011533 81 303 2.0 5.0 0.00 0.00 0.00 16 1007.1
20201021004551 86 298 3.0 8.0 0.00 0.00 0.00 13 1006.9
20201021003147 88 306 3.0 9.0 0.00 0.00 0.00 13 1006.8
20201021001651 89 315 3.0 9.0 0.00 0.00 0.00 12 1006.9
20201021000152 90 307 3.0 9.0 0.00 0.00 0.00 11 1006.8
20201020234614 91 311 3.0 8.0 0.00 0.00 0.00 10 1006.8
20201020233031 91 241 3.0 8.0 0.00 0.00 0.00 10 1006.8
20201020231604 91 288 1.0 8.0 0.00 0.00 0.00 10 1007.0
20201020230045 92 254 3.0 10.0 0.00 0.00 0.00 11 1007.0
20201020224630 93 242 2.0 9.0 0.00 0.00 0.00 11 1007.0
20201020223048 93 265 4.0 10.0 0.00 0.00 0.00 11 1007.0
20201020221617 93 317 3.0 9.0 0.00 0.00 0.00 11 1007.2
20201020220026 93 302 3.0 8.0 0.00 0.00 0.00 11 1007.3
20201020214528 93 305 5.0 8.0 0.00 0.00 0.00 11 1007.3
20201020213133 92 283 1.0 5.0 0.00 0.00 0.00 10 1007.6
20201020211604 93 236 3.0 7.0 0.00 0.00 0.00 10 1007.7
20201020210045 92 111 2.0 4.0 0.00 0.00 0.00 11 1007.9
20201020204525 92 279 3.0 7.0 0.00 0.00 0.00 11 1008.2
20201020203026 92 355 2.0 5.0 0.00 0.00 0.00 12 1008.3
20201020201526 90 298 2.0 5.0 0.00 0.00 0.00 13 1008.6
20201020200025 90 355 3.0 8.0 0.00 0.00 0.00 12 1008.8
20201020194522 90 250 1.0 6.0 0.00 0.00 0.00 13 1009.1
20201020193200 90 320 2.0 6.0 0.00 0.00 0.00 12 1009.4
20201020191718 88 355 2.0 5.0 0.00 0.00 0.00 14 1009.8
20201020190115 88 342 1.0 4.0 0.00 0.00 0.00 15 1010.0
20201020184626 88 259 0.0 3.0 0.00 0.00 0.00 15 1010.3
20201020183151 87 254 3.0 7.0 0.00 0.00 0.00 16 1010.5
20201020181658 86 239 1.0 4.0 0.00 0.00 0.00 16 1010.8
20201020180142 85 294 0.0 4.0 0.00 0.00 0.00 17 1010.9
20201020174539 84 208 2.0 5.0 0.00 0.00 0.00 17 1011.1
20201020173158 82 93 2.0 6.0 0.00 0.00 0.00 18 1011.1
20201020171556 81 119 2.0 4.0 0.00 0.00 0.00 18 1011.2
20201020170054 80 78 3.0 5.0 0.00 0.00 0.00 19 1011.3
20201020164549 78 121 2.0 6.0 0.00 0.00 0.00 21 1011.3
20201020163042 76 94 2.0 4.0 0.00 0.00 0.00 23 1011.4
20201020161530 74 117 3.0 7.0 0.00 0.00 0.00 26 1011.6
20201020160026 71 103 2.0 6.0 0.00 0.00 0.00 29 1011.7
20201020154706 68 77 2.0 4.0 0.00 0.00 0.00 30 1011.8
20201020153221 66 70 2.0 4.0 0.00 0.00 0.00 33 1011.7
20201020151641 64 79 2.0 4.0 0.00 0.00 0.00 33 1011.6
20201020144610 60 88 2.0 4.0 0.00 0.00 0.00 36 1011.4
20201020143144 57 88 1.0 3.0 0.00 0.00 0.00 40 1011.2
20201020141639 55 88 2.0 3.0 0.00 0.00 0.00 44 1011.3
20201020140055 53 88 0.0 2.0 0.00 0.00 0.00 49 1011.1
20201020134612 53 88 2.0 3.0 0.00 0.00 0.00 47 1011.0
20201020133054 52 88 1.0 3.0 0.00 0.00 0.00 47 1011.0